Location: Beaufort Park
(39.1418°N, 76.9433°W)
Time: 00:27:22
(UTC+00:00)

Cosmos 2297 Rocket - Pass Details

Date: 29 October 2020
Orbit: 838 x 844 km, 71.0° (Epoch: 02 December)

Event Time Altitude Azimuth Distance (km) Brightness Sun altitude
Rises 22:37:33 0° 342° (NNW) 3,410 5.4 -6.0°
Reaches altitude 10° 22:40:06 10° 348° (NNW) 2,472 4.6 -6.5°
Maximum altitude 22:45:35 49° 63° (ENE) 1,085 2.4 -7.6°
Drops below altitude 10° 22:51:01 10° 137° (SE) 2,456 4.3 -8.6°
Sets 22:53:32 0° 143° (SE) 3,386 5.1 -9.1°
